Terminal Aerodrome Forecast
Issued by NWS Brownsville, TX

Home | Current Version | Previous Version | Text Only | Print | Product List | Glossary On
Versions: 1 2 3 4 5 6 7 8 9 10 11 12 13 14 15 16 17 18
000
FTUS44 KBRO 220500
TAFHRL
TAF
KHRL 220529Z 2206/2306 14007KT P6SM SCT018
     FM221400 16013G19KT P6SM FEW040=

USA.gov is the U.S. government's official web portal to all federal, state and local government web resources and services.